Hourly Data Report for June 16, 2021

WRIGLEY A
NORTHWEST TERRITORIES
Current Station Operator: NAVCAN

63°12'35.000" N
123°26'12.000" W
149.70 m
2204005
YWY

Download Data

Hourly Data (June 2021)
Hourly Data Report for June 16, 2021
TIME
LST
Temp Definition
°C
Dew Point Definition
°C
Rel Hum Definition
%
Precip. Amount Definition
mm

Wind Dir Definition
10's deg

Wind Spd Definition
km/h
Visibility Definition
km
Stn Press Definition
kPa
Hmdx Definition


Wind Chill Definition


Weather Definition


00:00 14.7 4.8 51 LegendMM 36 5 LegendMM 99.67     LegendNANA
01:00 12.8 5.9 63 LegendMM 31 9 LegendMM 99.68     LegendNANA
02:00 10.9 6.2 72 LegendMM 29 5 LegendMM 99.68     LegendNANA
03:00 9.0 4.6 74 LegendMM 36 4 LegendMM 99.69     LegendNANA
04:00 7.4 4.6 82 LegendMM 31 2 LegendMM 99.70     LegendNANA
05:00 7.8 5.1 83 LegendMM 33 4 LegendMM 99.69     LegendNANA
06:00 9.6 5.7 76 LegendMM 36 3 LegendMM 99.72     LegendNANA
07:00 11.0 6.2 72 LegendMM 31 7 LegendMM 99.74     LegendNANA
08:00 12.4 6.3 66 LegendMM 31 5 LegendMM 99.74     LegendNANA
09:00 14.4 7.4 62 LegendMM 30 9 LegendMM 99.72     LegendNANA
10:00 15.6 6.1 53 LegendMM 28 9 LegendMM 99.70     LegendNANA
11:00 16.9 6.1 49 LegendMM 27 6 LegendMM 99.67     LegendNANA
12:00 18.2 7.7 50 LegendMM 29 21 LegendMM 99.67     LegendNANA
13:00 19.1 7.1 45 LegendMM 30 16 LegendMM 99.64     LegendNANA
14:00 19.9 7.2 43 LegendMM 30 20 LegendMM 99.63     LegendNANA
15:00 21.2 5.4 35 LegendMM 33 7 LegendMM 99.64     LegendNANA
16:00 22.6 6.7 35 LegendMM 33 8 LegendMM 99.64     LegendNANA
17:00 23.1 5.1 31 LegendMM 35 10 LegendMM 99.64     LegendNANA
18:00 23.0 5.4 31 LegendMM 0 1 LegendMM 99.66     LegendNANA
19:00 23.7 5.9 31 LegendMM 34 6 LegendMM 99.65     LegendNANA
20:00 22.8 5.1 31 LegendMM 34 5 LegendMM 99.67     LegendNANA
21:00 22.1 6.5 36 LegendMM 36 4 LegendMM 99.70     LegendNANA
22:00 20.4 5.9 38 LegendMM 6 7 LegendMM 99.73     LegendNANA
23:00 18.3 6.4 46 LegendMM 3 1 LegendMM 99.77     LegendNANA

Notes on Data Quality.

Legend

  • E = Estimated
  • M = Missing
  • NA = Not Available*
  • [empty] = Indicates an unobserved value
Date modified: